When you browse on this site, cookies collect data to enhance your experience and personalize the content and advertising you see.
Visit our Privacy Policy to learn more. By continuing to use the site, you agree to this use of cookies and data.
  • En España
  • Lista de países
  • Para 7 días
  • Temperatura del agua
  • El tiempo en el mapa
  • Informadores
  • user-avatar
    Iniciar sesión

    Tiempo cada hora Rio Branco

    Hoy, 29 Febrero, Sábado

    Tiempo Temperatura Precipitaciones Viento Presión Humedad
    00:00 +23°C° 0.1 mm 0 mps 746 mmHg 96%
    01:00 +23°C° 0.1 mm 0 mps 746 mmHg 96%
    02:00 +23°C° 0.4 mm 0 mps 746 mmHg 97%
    03:00 +23°C° 0.4 mm 0 mps 746 mmHg 97%
    04:00 +25°C° 0.4 mm 1 mps 746 mmHg 98%
    05:00 +25°C° 0.8 mm 1 mps 746 mmHg 98%
    06:00 +25°C° 0.8 mm 1 mps 747 mmHg 98%
    07:00 +25°C° 0.8 mm 1 mps 748 mmHg 98%
    08:00 +26°C° 0.3 mm 1 mps 748 mmHg 94%
    09:00 +27°C° 0.3 mm 1 mps 748 mmHg 89%
    10:00 +29°C° 0.3 mm 1 mps 748 mmHg 85%
    11:00 +29°C° 1.2 mm 2 mps 748 mmHg 86%
    12:00 +29°C° 1.2 mm 2 mps 747 mmHg 87%
    13:00 +30°C° 1.2 mm 2 mps 746 mmHg 88%
    14:00 +29°C° 1.3 mm 2 mps 746 mmHg 88%
    15:00 +29°C° 1.3 mm 1 mps 745 mmHg 89%
    16:00 +29°C° 1.3 mm 1 mps 744 mmHg 89%
    17:00 +28°C° 0.6 mm 1 mps 745 mmHg 90%
    18:00 +27°C° 0.6 mm 1 mps 745 mmHg 92%
    19:00 +24°C° 0.6 mm 0 mps 745 mmHg 93%
    20:00 +24°C° 0 mm 0 mps 746 mmHg 93%
    21:00 +23°C° 0 mm 0 mps 747 mmHg 93%
    22:00 +23°C° 0 mm 0 mps 747 mmHg 93%
    23:00 +23°C° 0.1 mm 0 mps 747 mmHg 94%

    Mañana, 1 Marzo, Domingo

    Tiempo Temperatura Precipitaciones Viento Presión Humedad
    00:00 +23°C° 0.1 mm 0 mps 746 mmHg 94%
    01:00 +23°C° 0.1 mm 0 mps 746 mmHg 95%
    02:00 +23°C° 0.6 mm 0 mps 746 mmHg 96%
    03:00 +23°C° 0.6 mm 0 mps 746 mmHg 97%
    04:00 +22°C° 0.6 mm 0 mps 746 mmHg 98%
    05:00 +23°C° 1.4 mm 0 mps 746 mmHg 98%
    06:00 +23°C° 1.4 mm 0 mps 747 mmHg 99%
    07:00 +23°C° 1.4 mm 0 mps 747 mmHg 99%
    08:00 +24°C° 0.5 mm 0 mps 748 mmHg 96%
    09:00 +25°C° 0.5 mm 0 mps 748 mmHg 94%
    10:00 +26°C° 0.5 mm 0 mps 748 mmHg 92%
    11:00 +27°C° 0.2 mm 0 mps 747 mmHg 86%
    12:00 +30°C° 0.2 mm 1 mps 746 mmHg 80%
    13:00 +31°C° 0.2 mm 1 mps 745 mmHg 74%
    14:00 +31°C° 0.5 mm 1 mps 745 mmHg 75%
    15:00 +31°C° 0.5 mm 1 mps 744 mmHg 76%
    16:00 +31°C° 0.5 mm 1 mps 743 mmHg 77%
    17:00 +30°C° 0 mm 1 mps 743 mmHg 82%
    18:00 +28°C° 0 mm 1 mps 743 mmHg 86%
    19:00 +27°C° 0 mm 1 mps 744 mmHg 91%
    20:00 +24°C° 0.1 mm 0 mps 744 mmHg 92%
    21:00 +24°C° 0.1 mm 0 mps 745 mmHg 94%
    22:00 +23°C° 0.1 mm 0 mps 745 mmHg 96%
    23:00 +23°C° 0.1 mm 0 mps 745 mmHg 96%

    Pasado mañana, 2 Marzo, Lunes

    Tiempo Temperatura Precipitaciones Viento Presión Humedad
    00:00 +23°C° 0.1 mm 0 mps 745 mmHg 97%
    01:00 +23°C° 0.1 mm 0 mps 745 mmHg 97%
    02:00 +23°C° 0.2 mm 0 mps 745 mmHg 97%
    03:00 +22°C° 0.2 mm 0 mps 745 mmHg 98%
    04:00 +22°C° 0.2 mm 0 mps 744 mmHg 98%
    05:00 +23°C° 0 mm 0 mps 745 mmHg 97%
    06:00 +24°C° 0 mm 0 mps 745 mmHg 96%
    07:00 +24°C° 0 mm 0 mps 746 mmHg 95%
    08:00 +26°C° 0.3 mm 0 mps 746 mmHg 88%
    09:00 +28°C° 0.3 mm 0 mps 746 mmHg 80%
    10:00 +32°C° 0.3 mm 1 mps 746 mmHg 72%
    11:00 +33°C° 0.2 mm 1 mps 745 mmHg 66%
    12:00 +34°C° 0.2 mm 1 mps 744 mmHg 60%
    13:00 +35°C° 0.2 mm 1 mps 743 mmHg 54%
    14:00 +35°C° 0 mm 1 mps 743 mmHg 56%
    15:00 +35°C° 0 mm 1 mps 742 mmHg 58%
    16:00 +32°C° 0 mm 0 mps 741 mmHg 61%
    17:00 +31°C° 0 mm 0 mps 741 mmHg 65%
    18:00 +29°C° 0 mm 0 mps 742 mmHg 69%
    19:00 +27°C° 0 mm 0 mps 742 mmHg 74%
    20:00 +27°C° 0.1 mm 0 mps 742 mmHg 76%
    21:00 +26°C° 0.1 mm 0 mps 743 mmHg 78%
    22:00 +26°C° 0.1 mm 0 mps 744 mmHg 81%
    23:00 +25°C° 0 mm 0 mps 744 mmHg 82%

    3 Marzo, Martes

    Tiempo Temperatura Precipitaciones Viento Presión Humedad
    00:00 +25°C° 0 mm 0 mps 744 mmHg 84%
    01:00 +24°C° 0 mm 0 mps 744 mmHg 86%
    02:00 +24°C° 0.2 mm 0 mps 744 mmHg 88%
    03:00 +24°C° 0.2 mm 0 mps 743 mmHg 90%
    04:00 +23°C° 0.2 mm 0 mps 743 mmHg 92%
    05:00 +24°C° 0.1 mm 0 mps 744 mmHg 92%
    06:00 +24°C° 0.1 mm 0 mps 744 mmHg 92%
    07:00 +25°C° 0.1 mm 0 mps 745 mmHg 92%
    08:00 +28°C° 0.1 mm 0 mps 745 mmHg 82%
    09:00 +30°C° 0.1 mm 0 mps 745 mmHg 72%
    10:00 +33°C° 0.1 mm 0 mps 745 mmHg 62%
    11:00 +33°C° 0.1 mm 0 mps 744 mmHg 59%
    12:00 +35°C° 0.1 mm 1 mps 744 mmHg 56%
    13:00 +36°C° 0.1 mm 1 mps 743 mmHg 53%
    14:00 +35°C° 0 mm 1 mps 742 mmHg 55%
    15:00 +35°C° 0 mm 1 mps 742 mmHg 58%
    16:00 +35°C° 0 mm 1 mps 741 mmHg 60%
    17:00 +33°C° 0.1 mm 1 mps 741 mmHg 67%
    18:00 +31°C° 0.1 mm 2 mps 742 mmHg 73%
    19:00 +28°C° 0.1 mm 2 mps 742 mmHg 80%
    20:00 +27°C° 0.3 mm 1 mps 743 mmHg 84%
    21:00 +27°C° 0.3 mm 1 mps 744 mmHg 87%
    22:00 +24°C° 0.3 mm 0 mps 745 mmHg 91%
    23:00 +24°C° 0 mm 0 mps 745 mmHg 92%

    4 Marzo, Miércoles

    Tiempo Temperatura Precipitaciones Viento Presión Humedad
    00:00 +24°C° 0 mm 0 mps 744 mmHg 92%
    01:00 +23°C° 0 mm 0 mps 744 mmHg 92%
    02:00 +23°C° 0 mm 0 mps 744 mmHg 93%
    03:00 +23°C° 0 mm 0 mps 744 mmHg 93%
    04:00 +23°C° 0 mm 0 mps 744 mmHg 94%
    05:00 +23°C° 0 mm 0 mps 745 mmHg 92%
    06:00 +24°C° 0 mm 0 mps 745 mmHg 91%
    07:00 +25°C° 0 mm 0 mps 746 mmHg 89%
    08:00 +27°C° 0 mm 0 mps 746 mmHg 79%
    09:00 +30°C° 0 mm 0 mps 746 mmHg 69%
    10:00 +33°C° 0 mm 0 mps 747 mmHg 59%
    11:00 +35°C° 0 mm 1 mps 746 mmHg 56%
    12:00 +36°C° 0 mm 1 mps 745 mmHg 53%
    13:00 +36°C° 0 mm 1 mps 744 mmHg 50%
    14:00 +36°C° 0 mm 1 mps 743 mmHg 53%
    15:00 +35°C° 0 mm 1 mps 742 mmHg 57%
    16:00 +35°C° 0 mm 1 mps 742 mmHg 61%
    17:00 +33°C° 0.1 mm 1 mps 742 mmHg 66%
    18:00 +31°C° 0.1 mm 1 mps 743 mmHg 71%
    19:00 +29°C° 0.1 mm 1 mps 743 mmHg 77%
    20:00 +28°C° 0.5 mm 1 mps 744 mmHg 82%
    21:00 +27°C° 0.5 mm 1 mps 745 mmHg 87%
    22:00 +24°C° 0.5 mm 0 mps 745 mmHg 92%
    23:00 +24°C° 0.1 mm 0 mps 745 mmHg 93%

    5 Marzo, Jueves

    Tiempo Temperatura Precipitaciones Viento Presión Humedad
    00:00 +24°C° 0.1 mm 0 mps 745 mmHg 94%
    01:00 +23°C° 0.1 mm 0 mps 745 mmHg 94%
    02:00 +23°C° 0.1 mm 0 mps 745 mmHg 94%
    03:00 +23°C° 0.1 mm 0 mps 745 mmHg 94%
    04:00 +23°C° 0.1 mm 0 mps 745 mmHg 94%
    05:00 +24°C° 0 mm 0 mps 745 mmHg 93%
    06:00 +24°C° 0 mm 0 mps 746 mmHg 92%
    07:00 +25°C° 0 mm 0 mps 746 mmHg 92%
    08:00 +26°C° 0.6 mm 0 mps 746 mmHg 87%
    09:00 +30°C° 0.6 mm 1 mps 746 mmHg 82%
    10:00 +32°C° 0.6 mm 1 mps 746 mmHg 77%
    11:00 +32°C° 1.1 mm 1 mps 746 mmHg 75%
    12:00 +33°C° 1.1 mm 1 mps 745 mmHg 74%
    13:00 +33°C° 1.1 mm 1 mps 744 mmHg 73%
    14:00 +33°C° 0.6 mm 1 mps 743 mmHg 74%
    15:00 +32°C° 0.6 mm 1 mps 743 mmHg 76%
    16:00 +30°C° 0.6 mm 0 mps 742 mmHg 78%
    17:00 +29°C° 0.3 mm 0 mps 742 mmHg 80%
    18:00 +27°C° 0.3 mm 0 mps 743 mmHg 82%
    19:00 +26°C° 0.3 mm 0 mps 743 mmHg 84%
    20:00 +27°C° 0 mm 1 mps 744 mmHg 86%
    21:00 +27°C° 0 mm 1 mps 745 mmHg 88%
    22:00 +27°C° 0 mm 1 mps 745 mmHg 90%
    23:00 +26°C° 0 mm 1 mps 745 mmHg 91%
    Mostrar más